KC2YYF Weather Reports


time (UTC)temp
C
wind
direction
speed
KPH
gust
KPH
rain 1hr
cm
rain 24hr
cm
rain mn
cm
humidity
%
barometer
mb
20260510104548 9 0 0.0 1.6 0.00 0.89 0.00 96 1011.2
20260510103038 8 0 0.0 0.0 0.00 0.89 0.00 96 1011.1
20260510101536 8 0 0.0 0.0 0.00 0.89 0.00 96 1010.9
20260510094553 8 0 0.0 0.0 0.00 0.89 0.00 96 1010.8
20260510093042 8 0 0.0 0.0 0.00 0.89 0.00 96 1010.7
20260510091539 9 0 0.0 4.8 0.00 0.89 0.00 96 1010.7
20260510090045 9 249 3.2 6.4 0.00 0.89 0.00 96 1010.4
20260510084603 9 249 3.2 6.4 0.00 0.91 0.00 96 1010.5
20260510083041 9 249 3.2 6.4 0.00 0.91 0.00 96 1010.6
20260510081550 9 0 0.0 4.8 0.00 0.91 0.00 96 1010.7
20260510080041 9 340 1.6 14.5 0.00 0.91 0.00 96 1010.9
20260510074536 9 0 0.0 3.2 0.00 0.94 0.00 96 1011.0
20260510073036 9 0 0.0 0.0 0.00 0.94 0.00 96 1011.1
20260510071545 9 297 1.6 4.8 0.00 0.94 0.00 96 1011.1
20260510070047 9 0 0.0 0.0 0.00 0.94 0.00 96 1011.4
20260510064542 9 16 0.0 6.4 0.00 1.09 0.00 96 1011.3
20260510063047 9 233 0.0 4.8 0.00 1.09 0.00 96 1011.4
20260510061544 9 330 0.0 4.8 0.00 1.09 0.00 96 1010.8
20260510060046 9 0 0.0 3.2 0.00 1.09 0.00 96 1011.1
20260510054542 9 0 0.0 1.6 0.00 1.09 0.00 96 1011.1
20260510053041 9 0 0.0 3.2 0.00 1.09 0.00 96 1011.3
20260510051546 9 0 0.0 3.2 0.00 1.09 0.00 96 1011.1
20260510050042 9 0 1.6 9.7 0.00 1.09 0.00 96 1010.8
20260510044538 9 0 3.2 9.7 0.00 1.09 0.00 96 1010.7
20260510043050 9 302 1.6 9.7 0.00 1.09 0.00 96 1010.8
20260510041540 9 0 0.0 0.0 0.00 1.09 0.00 96 1010.7
20260510040050 9 0 0.0 4.8 0.00 1.09 0.00 96 1010.6
20260510034545 9 275 0.0 4.8 0.00 1.09 1.09 96 1010.6
20260510033046 9 0 1.6 4.8 0.00 1.09 1.09 96 1010.5
20260510031536 9 0 0.0 6.4 0.00 1.09 1.09 96 1010.5
20260510030046 9 280 0.0 4.8 0.00 1.09 1.09 95 1010.5
20260510024544 9 0 0.0 4.8 0.00 1.09 1.09 95 1010.7
20260510023040 10 0 0.0 1.6 0.00 1.09 1.09 95 1010.6
20260510021536 10 0 0.0 0.0 0.00 1.09 1.09 95 1010.5
20260510020047 10 0 0.0 0.0 0.00 1.09 1.09 95 1010.6
20260510014546 9 0 0.0 0.0 0.00 1.09 1.09 95 1010.6
20260510013042 10 0 0.0 6.4 0.00 1.09 1.09 95 1010.2
20260510011544 10 0 0.0 6.4 0.00 1.09 1.09 95 1010.4
20260510010040 10 0 0.0 4.8 0.00 1.09 1.09 95 1010.0
20260510004538 10 0 0.0 0.0 0.00 1.09 1.09 95 1010.0
20260510003042 10 0 0.0 3.2 0.00 1.09 1.09 95 1009.7
20260510001544 10 274 3.2 11.3 0.00 1.09 1.09 95 1009.8
20260510000059 10 0 0.0 12.9 0.00 1.09 1.09 95 1009.5
20260509234553 11 269 4.8 11.3 0.00 1.09 1.09 95 1009.3
20260509233046 11 273 6.4 12.9 0.00 1.09 1.09 95 1009.1
20260509231544 11 276 3.2 6.4 0.00 1.09 1.09 95 1009.0
20260509230041 11 0 0.0 6.4 0.00 1.09 1.09 95 1009.0
20260509224542 11 0 0.0 8.0 0.00 1.09 1.09 95 1009.2
20260509223043 11 286 4.8 9.7 0.03 1.09 1.09 95 1009.3
20260509221547 11 0 1.6 12.9 0.03 1.09 1.09 95 1009.4
20260509220045 11 295 3.2 11.3 0.05 1.09 1.09 95 1009.3
20260509214542 10 289 0.0 6.4 0.08 1.09 1.09 95 1009.4
20260509213042 10 0 0.0 1.6 0.08 1.07 1.07 95 1009.6
20260509211543 10 292 1.6 6.4 0.08 1.07 1.07 95 1009.7
20260509210046 10 300 1.6 8.0 0.10 1.04 1.04 94 1009.8
20260509204541 11 315 1.6 8.0 0.13 1.02 1.02 95 1009.8
20260509203043 10 282 1.6 4.8 0.15 0.99 0.99 95 1009.9
20260509201543 10 0 0.0 3.2 0.20 0.99 0.99 95 1010.1
20260509200058 10 248 1.6 4.8 0.20 0.94 0.94 95 1010.3
20260509194540 10 305 1.6 6.4 0.23 0.89 0.89 95 1010.6
20260509193038 10 325 3.2 11.3 0.25 0.84 0.84 95 1010.7
20260509191537 10 346 3.2 11.3 0.28 0.79 0.79 95 1010.8
20260509190042 10 304 4.8 20.9 0.28 0.74 0.74 95 1010.9
20260509184555 10 0 3.2 16.1 0.23 0.66 0.66 95 1011.0
20260509183042 11 284 1.6 11.3 0.18 0.58 0.58 95 1011.2
20260509181620 10 280 1.6 11.3 0.13 0.51 0.51 95 1011.4
20260509180041 10 265 1.6 9.7 0.10 0.46 0.46 95 1011.2
20260509174539 10 259 0.0 6.4 0.08 0.43 0.43 95 1011.1
20260509173052 10 275 3.2 14.5 0.05 0.41 0.41 95 1011.2
20260509171542 10 247 3.2 9.7 0.05 0.38 0.38 95 1011.1
20260509170041 10 254 3.2 4.8 0.03 0.36 0.36 95 1011.1
20260509164540 9 255 0.0 6.4 0.05 0.36 0.36 95 1011.1
20260509163036 9 234 3.2 8.0 0.08 0.36 0.36 95 1010.8
20260509161543 9 290 1.6 4.8 0.05 0.33 0.33 95 1011.2
20260509160045 9 0 0.0 3.2 0.08 0.33 0.33 95 1011.7
20260509154542 8 0 0.0 6.4 0.05 0.30 0.30 95 1011.8
20260509153046 8 267 6.4 11.3 0.05 0.28 0.28 94 1011.9
20260509151540 8 263 1.6 4.8 0.05 0.28 0.28 94 1011.9
20260509150040 8 0 0.0 0.0 0.03 0.25 0.25 94 1011.8
20260509144601 8 0 0.0 4.8 0.03 0.25 0.25 94 1011.7
20260509143041 8 269 1.6 4.8 0.00 0.23 0.23 94 1011.6
20260509141541 7 0 0.0 0.0 0.00 0.23 0.23 94 1011.7
20260509140041 7 0 0.0 0.0 0.03 0.23 0.23 94 1011.7
20260509134557 7 0 0.0 3.2 0.03 0.23 0.23 94 1011.8
20260509133047 7 0 0.0 1.6 0.03 0.23 0.23 94 1011.9
20260509131542 7 0 0.0 6.4 0.03 0.23 0.23 94 1012.1
20260509130054 7 256 0.0 6.4 0.00 0.20 0.20 94 1012.1
20260509124543 6 244 4.8 11.3 0.00 0.20 0.20 93 1012.2
20260509123040 6 203 0.0 3.2 0.00 0.20 0.20 94 1011.9
20260509121601 6 138 0.0 0.0 0.00 0.20 0.20 93 1011.7
20260509120041 6 236 0.0 6.4 0.00 0.20 0.20 93 1011.8
20260509114541 6 221 0.0 4.8 0.00 0.20 0.20 93 1011.9
20260509113042 6 221 0.0 3.2 0.00 0.20 0.20 93 1012.0
20260509111551 6 0 0.0 6.4 0.00 0.20 0.20 93 1012.2
20260509110043 6 0 0.0 4.8 0.00 0.20 0.20 93 1012.2